Find Starlink 31805

NORAD ID: 59745 Int'l Des: 2024-090 Owner: SPXS Country: US Constellation: starlink operational
LEOCIRCULAR

当前视图

正在加载3D地球...

About Starlink 31805

Starlink 31805 (NORAD 59745) is a starlink constellation satellite (v2 mini) launched May 13, 2024 by SPXS of US. It operates in LEO, CIRCULAR orbit with a mass of 730.00 kg.

即将过境

Passes for default location (London). Set your location on the main map for personalized predictions.

高度历史

Loading altitude history...

两行轨道根数

1 59745U 24090R 26262.09849029 -.00000478 00000-0 -78372-5 0 9997
2 59745 42.9965 170.8710 0001137 265.9195 94.1527 15.27581491133020
Epoch: Sep 19, 2026 • Age: 52 hours

当前状态

高度 486.0 km
远地点 / 近地点 N/A
速度 7.63 km/s
星下点 38.84°N, 179.57°E
发射日期 May 13, 2024
运行时间 2.3 years
类型 internet

技术详情

分类 Payload
质量 730.00 kg
干质量 700.00 kg
长度 0.30 m
跨度 29.00 m
形状 ? Box + pan
制造商 SPXS
平台类型 Starlink V2M
阶段状态 In Orbit
所有者/国家 SPXS/US

Most Searched